Simultaneous Nadir Overpasses (SNOs) Predictions

Prediction of SNOs between GOES-16 and FY3D Satellite Orbit:

Table of predicted SNOs for the next 14.0 days since TLE Epoch: 6/1/2024
Index Date Time (GOES-16) GOES-16 Lat,Lon FY3D Lat,Lon Distance(km) Time Diff (sec)
1 06/03/2024 07:29:37 0.02, -75.21 -0.01, -75.11 12.29 80
2 06/05/2024 19:35:58 -0.01, -75.23 -0.19, -75.95 82.47 80
3 06/06/2024 19:14:46 -0.00, -75.23 0.86, -71.46 431.24 80
4 06/08/2024 07:39:31 0.00, -75.25 0.32, -76.76 171.38 80
5 06/09/2024 07:18:17 -0.00, -75.27 -0.67, -72.26 342.77 80
6 06/10/2024 19:43:11 -0.00, -75.28 -0.55, -77.59 264.08 80
7 06/11/2024 19:21:58 0.00, -75.30 0.50, -73.10 250.79 80
8 06/13/2024 07:46:44 0.00, -75.34 0.68, -78.41 350.06 80
9 06/14/2024 07:25:30 0.00, -75.36 -0.31, -73.91 165.25 80
